FW0014 Weather Reports


time (UTC)temp
C
wind
direction
speed
KPH
gust
KPH
rain 1hr
cm
rain 24hr
cm
rain mn
cm
humidity
%
barometer
mb
20260831034353 27 162 9.7 14.5 0.00 0.00 0.00 59 1017.2
20260831034039 27 151 6.4 14.5 0.00 0.00 0.00 59 1014.1
20260831033849 27 164 1.6 4.8 0.00 0.00 0.00 59 1017.0
20260831033600 27 165 0.0 0.0 0.00 0.00 0.00 58 1014.0
20260831033327 27 165 0.0 1.6 0.00 0.00 0.00 58 1016.8
20260831033054 27 165 0.0 3.2 0.00 0.00 0.00 58 1013.7
20260831032819 27 164 0.0 3.2 0.00 0.00 0.00 57 1016.8
20260831032530 27 165 0.0 4.8 0.00 0.00 0.00 57 1014.0
20260831032317 28 165 3.2 4.8 0.00 0.00 0.00 57 1016.8
20260831032026 27 165 3.2 4.8 0.00 0.00 0.00 57 1013.9
20260831031815 28 165 3.2 4.8 0.00 0.00 0.00 57 1016.8
20260831031521 27 165 3.2 4.8 0.00 0.00 0.00 57 1013.8
20260831031331 28 165 4.8 4.8 0.00 0.00 0.00 57 1016.7
20260831031042 27 164 3.2 4.8 0.00 0.00 0.00 56 1013.7
20260831030830 28 165 4.8 6.4 0.00 0.00 0.00 56 1016.7
20260831030534 28 165 3.2 6.4 0.00 0.00 0.00 56 1013.6
20260831030329 28 165 4.8 6.4 0.00 0.00 0.00 56 1016.6
20260831030016 28 165 3.2 4.8 0.00 0.00 0.00 56 1013.7
20260831025827 28 165 1.6 4.8 0.00 0.00 0.00 55 1016.7
20260831025506 28 165 0.0 3.2 0.00 0.00 0.00 55 1013.6
20260831025323 28 165 1.6 4.8 0.00 0.00 0.00 55 1016.5
20260831025100 28 165 0.0 1.6 0.00 0.00 0.00 55 1013.6
20260831024821 28 165 0.0 3.2 0.00 0.00 0.00 55 1016.5
20260831024550 28 165 0.0 4.8 0.00 0.00 0.00 55 1013.4
20260831024339 28 165 1.6 4.8 0.00 0.00 0.00 54 1016.4
20260831024036 28 165 1.6 4.8 0.00 0.00 0.00 54 1013.4
20260831023830 28 164 3.2 4.8 0.00 0.00 0.00 54 1016.4
20260831023529 28 166 3.2 8.0 0.00 0.00 0.00 54 1013.3
20260831023327 28 165 3.2 8.0 0.00 0.00 0.00 54 1016.2
20260831023010 28 165 4.8 8.0 0.00 0.00 0.00 54 1013.2
20260831022825 28 165 6.4 8.0 0.00 0.00 0.00 54 1016.2
20260831022606 28 165 4.8 8.0 0.00 0.00 0.00 54 1013.2
20260831022342 29 164 4.8 8.0 0.00 0.00 0.00 53 1016.1
20260831022032 28 164 4.8 8.0 0.00 0.00 0.00 53 1013.1
20260831021818 29 164 6.4 8.0 0.00 0.00 0.00 53 1016.0
20260831021525 28 165 4.8 8.0 0.00 0.00 0.00 53 1013.0
20260831021315 29 164 6.4 6.4 0.00 0.00 0.00 53 1016.0
20260831021015 29 165 4.8 8.0 0.00 0.00 0.00 52 1012.9
20260831020832 29 165 6.4 8.0 0.00 0.00 0.00 52 1015.9
20260831020602 29 165 4.8 8.0 0.00 0.00 0.00 52 1012.9
20260831020351 30 165 6.4 8.0 0.00 0.00 0.00 52 1015.8
20260831020031 29 164 4.8 8.0 0.00 0.00 0.00 52 1012.8
20260831015829 30 164 4.8 8.0 0.00 0.00 0.00 51 1015.8
20260831015514 30 165 3.2 8.0 0.00 0.00 0.00 51 1012.8
20260831015326 30 152 4.8 8.0 0.00 0.00 0.00 51 1015.8
20260831015004 30 152 3.2 4.8 0.00 0.00 0.00 50 1012.8
20260831014824 30 152 3.2 4.8 0.00 0.00 0.00 50 1015.7
20260831014558 30 152 1.6 4.8 0.00 0.00 0.00 50 1012.8
20260831014321 30 152 3.2 4.8 0.00 0.00 0.00 50 1015.7
20260831014048 30 152 1.6 4.8 0.00 0.00 0.00 50 1012.7
20260831013819 30 152 3.2 4.8 0.00 0.00 0.00 49 1015.8
20260831013538 30 152 1.6 4.8 0.00 0.00 0.00 49 1012.7
20260831013317 31 152 1.6 4.8 0.00 0.00 0.00 49 1015.6
20260831013028 30 152 0.0 0.0 0.00 0.00 0.00 49 1012.7
20260831012816 31 152 0.0 0.0 0.00 0.00 0.00 49 1015.6
20260831012520 31 152 0.0 0.0 0.00 0.00 0.00 49 1012.6
20260831012333 31 152 0.0 0.0 0.00 0.00 0.00 48 1015.6
20260831012004 31 152 0.0 0.0 0.00 0.00 0.00 48 1012.6
20260831011831 31 142 0.0 0.0 0.00 0.00 0.00 48 1015.6
20260831011534 31 143 0.0 0.0 0.00 0.00 0.00 48 1012.5
20260831011329 31 139 0.0 0.0 0.00 0.00 0.00 48 1015.6
20260831011024 31 152 0.0 0.0 0.00 0.00 0.00 47 1012.6
20260831010826 31 149 0.0 0.0 0.00 0.00 0.00 47 1015.5
20260831010508 31 156 0.0 0.0 0.00 0.00 0.00 47 1012.6
20260831010322 32 159 0.0 0.0 0.00 0.00 0.00 47 1015.5
20260831010044 31 155 0.0 0.0 0.00 0.00 0.00 47 1012.5
20260831005819 32 147 0.0 0.0 0.00 0.00 0.00 46 1015.5
20260831005530 32 131 0.0 0.0 0.00 0.00 0.00 46 1012.4
20260831005336 32 148 0.0 0.0 0.00 0.00 0.00 46 1015.5
20260831005057 32 156 0.0 0.0 0.00 0.00 0.00 46 1012.4
20260831004814 32 138 0.0 0.0 0.00 0.00 0.00 46 1015.5
20260831004546 32 150 0.0 0.0 0.00 0.00 0.00 46 1012.4
20260831004332 32 158 0.0 0.0 0.00 0.00 0.00 45 1015.4
20260831004044 32 137 0.0 0.0 0.00 0.00 0.00 45 1012.4
20260831003829 32 149 0.0 0.0 0.00 0.00 0.00 45 1015.3
20260831003529 32 145 0.0 0.0 0.00 0.00 0.00 45 1012.4
20260831003325 32 150 0.0 0.0 0.00 0.00 0.00 44 1015.3
20260831003022 32 170 0.0 0.0 0.00 0.00 0.00 44 1012.3
20260831002823 33 132 0.0 0.0 0.00 0.00 0.00 44 1015.3
20260831002501 32 140 0.0 0.0 0.00 0.00 0.00 44 1012.3
20260831002320 33 127 0.0 0.0 0.00 0.00 0.00 44 1015.3
20260831002105 32 127 0.0 0.0 0.00 0.00 0.00 44 1012.4
20260831001819 33 128 0.0 0.0 0.00 0.00 0.00 44 1015.3
20260831001608 33 132 0.0 0.0 0.00 0.00 0.00 44 1012.3
20260831001318 33 149 0.0 0.0 0.00 0.00 0.00 44 1015.4
20260831001100 33 170 0.0 0.0 0.00 0.00 0.00 44 1012.3
20260831000837 33 150 0.0 0.0 0.00 0.00 0.00 44 1015.4
20260831000532 33 152 0.0 0.0 0.00 0.00 0.00 43 1012.3
20260831000318 33 116 0.0 0.0 0.00 0.00 0.00 43 1015.4
20260831000026 33 138 0.0 0.0 0.00 0.00 0.00 43 1012.4
20260830235814 33 166 0.0 0.0 0.00 0.00 0.00 43 1015.4
20260830235511 33 162 0.0 0.0 0.00 0.00 0.00 43 1012.3
20260830235329 33 147 0.0 0.0 0.00 0.00 0.00 43 1015.4
20260830235002 33 150 0.0 0.0 0.00 0.00 0.00 43 1012.4
20260830234827 33 152 0.0 0.0 0.00 0.00 0.00 43 1015.3
20260830234602 33 152 0.0 0.0 0.00 0.00 0.00 43 1012.3
20260830234326 33 114 0.0 0.0 0.00 0.00 0.00 43 1015.3
20260830234050 33 133 0.0 0.0 0.00 0.00 0.00 43 1012.3
20260830233825 33 93 0.0 0.0 0.00 0.00 0.00 43 1015.3
20260830233546 33 133 0.0 0.0 0.00 0.00 0.00 43 1012.3
20260830233324 33 146 0.0 0.0 0.00 0.00 0.00 43 1015.3
20260830233038 33 120 0.0 0.0 0.00 0.00 0.00 43 1012.3
20260830232822 34 137 0.0 0.0 0.00 0.00 0.00 42 1015.3
20260830232530 33 145 0.0 0.0 0.00 0.00 0.00 41 1012.3
20260830232321 34 153 0.0 0.0 0.00 0.00 0.00 41 1015.3
20260830232025 33 145 0.0 0.0 0.00 0.00 0.00 41 1012.3
20260830231838 34 152 0.0 0.0 0.00 0.00 0.00 41 1015.3
20260830231515 33 160 0.0 0.0 0.00 0.00 0.00 42 1012.2
20260830231331 34 152 0.0 0.0 0.00 0.00 0.00 42 1015.1
20260830231100 34 181 0.0 0.0 0.00 0.00 0.00 41 1012.1
20260830230830 34 154 0.0 0.0 0.00 0.00 0.00 41 1015.1
20260830230549 33 174 0.0 0.0 0.00 0.00 0.00 41 1012.1
20260830230330 34 171 0.0 0.0 0.00 0.00 0.00 41 1015.2
20260830230045 33 158 0.0 0.0 0.00 0.00 0.00 42 1012.2
20260830225829 34 60 0.0 0.0 0.00 0.00 0.00 42 1015.1
20260830225532 33 125 0.0 0.0 0.00 0.00 0.00 42 1012.2
20260830225325 33 139 0.0 0.0 0.00 0.00 0.00 42 1015.2
20260830225026 33 103 0.0 0.0 0.00 0.00 0.00 42 1012.3
20260830224823 33 121 0.0 0.0 0.00 0.00 0.00 42 1015.3
20260830224524 33 93 0.0 0.0 0.00 0.00 0.00 42 1012.3
20260830224322 34 146 0.0 0.0 0.00 0.00 0.00 42 1015.3
20260830224004 34 112 0.0 0.0 0.00 0.00 0.00 42 1012.3
20260830223820 34 164 0.0 0.0 0.00 0.00 0.00 42 1015.3
20260830223602 34 137 0.0 0.0 0.00 0.00 0.00 42 1012.3
20260830223338 35 137 0.0 0.0 0.00 0.00 0.00 42 1015.3
20260830223048 34 154 0.0 0.0 0.00 0.00 0.00 42 1012.4
20260830222830 34 114 0.0 0.0 0.00 0.00 0.00 43 1015.3
20260830222539 34 144 0.0 0.0 0.00 0.00 0.00 43 1012.3
20260830222329 34 116 0.0 0.0 0.00 0.00 0.00 43 1015.3
20260830222036 33 118 0.0 0.0 0.00 0.00 0.00 43 1012.3
20260830221829 34 145 0.0 0.0 0.00 0.00 0.00 43 1015.4
20260830221518 33 147 0.0 0.0 0.00 0.00 0.00 43 1012.4
20260830221329 34 141 0.0 0.0 0.00 0.00 0.00 42 1015.4
20260830221011 34 156 0.0 0.0 0.00 0.00 0.00 41 1012.3
20260830220850 34 145 0.0 0.0 0.00 0.00 0.00 41 1015.4
20260830220542 34 144 0.0 0.0 0.00 0.00 0.00 41 1012.4
20260830220329 34 120 0.0 0.0 0.00 0.00 0.00 41 1015.4
20260830220032 34 145 0.0 0.0 0.00 0.00 0.00 41 1012.4
20260830215825 35 144 0.0 0.0 0.00 0.00 0.00 40 1015.4
20260830215527 35 148 0.0 0.0 0.00 0.00 0.00 38 1012.4
20260830215323 35 172 0.0 0.0 0.00 0.00 0.00 38 1015.4
20260830215026 35 166 0.0 0.0 0.00 0.00 0.00 38 1012.3
20260830214821 35 171 0.0 0.0 0.00 0.00 0.00 39 1015.3
20260830214506 35 104 0.0 0.0 0.00 0.00 0.00 40 1012.5
20260830214319 35 127 0.0 0.0 0.00 0.00 0.00 40 1015.5
20260830214059 35 123 0.0 0.0 0.00 0.00 0.00 40 1012.5
20260830213818 35 106 0.0 0.0 0.00 0.00 0.00 40 1015.5
20260830213550 35 149 0.0 0.0 0.00 0.00 0.00 40 1012.5
20260830213335 35 103 0.0 0.0 0.00 0.00 0.00 40 1015.6
20260830213014 34 77 0.0 0.0 0.00 0.00 0.00 40 1012.6
20260830212850 35 199 0.0 0.0 0.00 0.00 0.00 40 1015.6
20260830212542 34 183 0.0 0.0 0.00 0.00 0.00 40 1012.8
20260830212326 35 142 0.0 0.0 0.00 0.00 0.00 40 1015.8
20260830212035 34 120 0.0 0.0 0.00 0.00 0.00 40 1012.7
20260830211823 34 141 0.0 0.0 0.00 0.00 0.00 41 1015.8
20260830211533 33 160 0.0 0.0 0.00 0.00 0.00 40 1012.9
20260830211320 33 166 0.0 0.0 0.00 0.00 0.00 40 1015.9
20260830211024 33 151 0.0 0.0 0.00 0.00 0.00 40 1013.0
20260830210819 33 151 0.0 0.0 0.00 0.00 0.00 39 1016.0
20260830210519 33 147 0.0 0.0 0.00 0.00 0.00 39 1013.1
20260830210316 34 128 0.0 0.0 0.00 0.00 0.00 39 1016.1
20260830205814 34 152 0.0 0.0 0.00 0.00 0.00 39 1016.1
20260830205551 34 163 0.0 0.0 0.00 0.00 0.00 39 1013.1
20260830205331 34 160 0.0 0.0 0.00 0.00 0.00 39 1016.3
20260830205043 34 196 0.0 0.0 0.00 0.00 0.00 38 1013.2
20260830204830 35 178 0.0 0.0 0.00 0.00 0.00 39 1016.3
20260830204533 34 155 0.0 0.0 0.00 0.00 0.00 39 1013.2
20260830204329 34 126 0.0 0.0 0.00 0.00 0.00 39 1016.3
20260830204018 34 214 0.0 0.0 0.00 0.00 0.00 39 1013.3
20260830203829 34 216 0.0 0.0 0.00 0.00 0.00 40 1016.4
20260830203507 34 78 0.0 0.0 0.00 0.00 0.00 39 1013.4
20260830203326 34 166 0.0 0.0 0.00 0.00 0.00 39 1016.4
20260830203100 34 201 0.0 0.0 0.00 0.00 0.00 40 1013.5
20260830202823 34 169 0.0 0.0 0.00 0.00 0.00 40 1016.5
20260830202554 34 193 0.0 0.0 0.00 0.00 0.00 40 1013.6
20260830202321 35 163 0.0 0.0 0.00 0.00 0.00 40 1016.6
20260830202043 34 162 0.0 0.0 0.00 0.00 0.00 41 1013.7
20260830201839 35 220 0.0 0.0 0.00 0.00 0.00 40 1016.6
20260830201532 34 232 0.0 0.0 0.00 0.00 0.00 40 1013.8
20260830201329 35 204 0.0 0.0 0.00 0.00 0.00 40 1016.7
20260830201023 34 160 0.0 0.0 0.00 0.00 0.00 41 1013.8
20260830200825 34 145 0.0 0.0 0.00 0.00 0.00 41 1016.8
20260830200505 33 149 0.0 0.0 0.00 0.00 0.00 40 1013.9
20260830200324 34 135 0.0 0.0 0.00 0.00 0.00 40 1016.8
20260830200103 33 199 0.0 0.0 0.00 0.00 0.00 41 1013.9
20260830195821 34 125 0.0 0.0 0.00 0.00 0.00 39 1017.0
20260830195550 33 158 0.0 0.0 0.00 0.00 0.00 39 1014.2
20260830195319 34 237 0.0 0.0 0.00 0.00 0.00 39 1017.2
20260830195042 33 191 0.0 0.0 0.00 0.00 0.00 38 1014.1
20260830194817 34 121 0.0 0.0 0.00 0.00 0.00 38 1017.1
20260830194537 33 160 0.0 0.0 0.00 0.00 0.00 37 1014.2
20260830194335 34 198 0.0 0.0 0.00 0.00 0.00 39 1017.2
20260830194058 33 175 0.0 0.0 0.00 0.00 0.00 39 1014.2
20260830193831 33 172 0.0 0.0 0.00 0.00 0.00 39 1017.3
20260830193551 33 187 0.0 0.0 0.00 0.00 0.00 39 1014.3
20260830193330 33 174 0.0 0.0 0.00 0.00 0.00 39 1017.3
20260830193056 33 195 0.0 0.0 0.00 0.00 0.00 40 1014.4
20260830192829 33 137 0.0 0.0 0.00 0.00 0.00 39 1017.4
20260830192529 33 156 0.0 0.0 0.00 0.00 0.00 40 1014.3
20260830192324 33 130 0.0 0.0 0.00 0.00 0.00 41 1017.5
20260830192053 33 104 0.0 0.0 0.00 0.00 0.00 41 1014.4
20260830191841 33 157 0.0 0.0 0.00 0.00 0.00 41 1017.4
20260830191526 33 134 0.0 0.0 0.00 0.00 0.00 42 1014.4
20260830191318 33 160 0.0 0.0 0.00 0.00 0.00 43 1017.5
20260830191014 33 195 0.0 0.0 0.00 0.00 0.00 43 1014.5
20260830190815 33 168 0.0 0.0 0.00 0.00 0.00 44 1017.5
20260830190600 33 188 0.0 0.0 0.00 0.00 0.00 43 1014.6
20260830190350 33 136 0.0 0.0 0.00 0.00 0.00 43 1017.7
20260830190031 33 82 0.0 0.0 0.00 0.00 0.00 44 1014.7
20260830185826 33 128 0.0 0.0 0.00 0.00 0.00 43 1017.8
20260830185512 33 197 0.0 0.0 0.00 0.00 0.00 43 1014.8
20260830185323 33 172 0.0 0.0 0.00 0.00 0.00 43 1017.8
20260830185004 33 201 0.0 0.0 0.00 0.00 0.00 43 1014.9
20260830184821 33 170 0.0 0.0 0.00 0.00 0.00 42 1018.0
20260830184558 33 162 0.0 0.0 0.00 0.00 0.00 42 1015.0
20260830184318 33 195 0.0 0.0 0.00 0.00 0.00 43 1018.0
20260830184047 32 224 0.0 0.0 0.00 0.00 0.00 43 1015.1
20260830183835 33 185 0.0 0.0 0.00 0.00 0.00 43 1018.1
20260830183509 33 158 0.0 0.0 0.00 0.00 0.00 44 1015.2
20260830183352 33 193 0.0 0.0 0.00 0.00 0.00 44 1018.2
20260830183039 32 212 0.0 0.0 0.00 0.00 0.00 44 1015.2
20260830182850 33 215 0.0 0.0 0.00 0.00 0.00 44 1018.3
20260830182602 32 144 0.0 0.0 0.00 0.00 0.00 45 1015.2
20260830182325 32 155 0.0 0.0 0.00 0.00 0.00 46 1018.3
20260830182054 32 157 0.0 0.0 0.00 0.00 0.00 45 1015.4
20260830181823 32 173 0.0 0.0 0.00 0.00 0.00 46 1018.4
20260830181545 32 146 0.0 0.0 0.00 0.00 0.00 47 1015.4
20260830181340 32 274 0.0 0.0 0.00 0.00 0.00 47 1018.5
20260830181041 32 176 0.0 0.0 0.00 0.00 0.00 47 1015.5
20260830180851 32 190 0.0 0.0 0.00 0.00 0.00 47 1018.6
20260830180505 32 225 0.0 0.0 0.00 0.00 0.00 46 1015.6
20260830180349 32 195 0.0 0.0 0.00 0.00 0.00 46 1018.7
20260830180046 32 208 0.0 0.0 0.00 0.00 0.00 46 1015.7
20260830175826 32 153 0.0 0.0 0.00 0.00 0.00 47 1018.8
20260830175537 32 25 0.0 0.0 0.00 0.00 0.00 49 1015.7
20260830175325 32 160 0.0 0.0 0.00 0.00 0.00 48 1018.8
20260830175031 32 140 0.0 0.0 0.00 0.00 0.00 49 1016.0
20260830174823 32 202 0.0 0.0 0.00 0.00 0.00 48 1019.0
20260830174613 31 162 0.0 0.0 0.00 0.00 0.00 48 1016.0
20260830174321 32 155 0.0 0.0 0.00 0.00 0.00 48 1019.0
20260830174049 31 215 0.0 0.0 0.00 0.00 0.00 50 1016.1
20260830173818 32 209 0.0 0.0 0.00 0.00 0.00 51 1019.2
20260830173544 31 185 0.0 0.0 0.00 0.00 0.00 51 1016.1
20260830173337 31 157 0.0 0.0 0.00 0.00 0.00 51 1019.2
20260830173009 31 160 0.0 11.3 0.00 0.00 0.00 51 1016.3
20260830172815 32 157 0.0 11.3 0.00 0.00 0.00 50 1019.3
20260830172506 31 118 0.0 12.9 0.00 0.00 0.00 49 1016.3
20260830172331 31 138 4.8 12.9 0.00 0.00 0.00 53 1019.3
20260830172056 31 221 6.4 14.5 0.00 0.00 0.00 53 1016.3
20260830171828 31 215 4.8 14.5 0.00 0.00 0.00 54 1019.4
20260830171554 31 285 8.0 16.1 0.00 0.00 0.00 53 1016.5
20260830171327 31 187 8.0 19.3 0.00 0.00 0.00 53 1019.6
20260830171040 31 225 8.0 19.3 0.00 0.00 0.00 53 1016.6
20260830170825 31 247 9.7 19.3 0.00 0.00 0.00 54 1019.6
20260830170534 31 237 9.7 17.7 0.00 0.00 0.00 54 1016.7
20260830170343 31 199 9.7 17.7 0.00 0.00 0.00 55 1019.6
20260830165819 31 212 11.3 17.7 0.00 0.00 0.00 56 1019.7
20260830165551 30 222 8.0 16.1 0.00 0.00 0.00 55 1016.6
20260830165316 31 161 8.0 16.1 0.00 0.00 0.00 56 1019.6
20260830165046 30 211 11.3 16.1 0.00 0.00 0.00 56 1016.7
20260830164814 31 230 9.7 14.5 0.00 0.00 0.00 57 1019.7
20260830164539 30 214 0.0 0.0 0.00 0.00 0.00 57 1016.8
20260830164329 30 226 0.0 0.0 0.00 0.00 0.00 58 1019.8
20260830164033 30 146 0.0 0.0 0.00 0.00 0.00 57 1016.9
20260830163829 30 222 0.0 0.0 0.00 0.00 0.00 57 1019.8
20260830163529 30 176 0.0 0.0 0.00 0.00 0.00 57 1016.9
20260830163325 30 213 0.0 0.0 0.00 0.00 0.00 58 1019.9
20260830163015 30 160 0.0 0.0 0.00 0.00 0.00 58 1017.0
20260830162822 30 186 0.0 0.0 0.00 0.00 0.00 59 1019.9
20260830162505 30 216 0.0 0.0 0.00 0.00 0.00 60 1017.0
20260830162318 30 204 0.0 0.0 0.00 0.00 0.00 60 1020.0
20260830162057 30 185 0.0 0.0 0.00 0.00 0.00 60 1016.9
20260830161836 30 240 0.0 0.0 0.00 0.00 0.00 60 1019.8
20260830161527 29 144 0.0 0.0 0.00 0.00 0.00 59 1016.8
20260830161313 30 172 0.0 0.0 0.00 0.00 0.00 60 1019.9
20260830161021 29 231 0.0 0.0 0.00 0.00 0.00 62 1016.8
20260830160830 30 237 0.0 0.0 0.00 0.00 0.00 62 1019.9
20260830160506 29 235 0.0 0.0 0.00 0.00 0.00 62 1016.9
20260830160330 29 225 0.0 0.0 0.00 0.00 0.00 62 1019.9
20260830160059 29 265 0.0 0.0 0.00 0.00 0.00 62 1017.0
20260830155826 29 223 0.0 0.0 0.00 0.00 0.00 62 1020.0
20260830155551 28 220 0.0 0.0 0.00 0.00 0.00 62 1016.9
20260830155324 29 237 0.0 0.0 0.00 0.00 0.00 62 1019.9
20260830155046 28 216 0.0 0.0 0.00 0.00 0.00 64 1016.9
20260830154819 28 181 0.0 0.0 0.00 0.00 0.00 63 1019.9
20260830154535 28 213 0.0 0.0 0.00 0.00 0.00 63 1017.0
20260830154317 28 193 0.0 0.0 0.00 0.00 0.00 64 1019.9
20260830154029 28 207 0.0 0.0 0.00 0.00 0.00 64 1017.0
20260830153814 28 194 0.0 0.0 0.00 0.00 0.00 65 1020.0
20260830153521 28 197 0.0 0.0 0.00 0.00 0.00 65 1017.0
20260830153314 28 182 0.0 0.0 0.00 0.00 0.00 64 1019.9
20260830153006 28 170 0.0 0.0 0.00 0.00 0.00 65 1016.9
20260830152851 28 147 0.0 0.0 0.00 0.00 0.00 66 1019.8
20260830152535 28 185 0.0 0.0 0.00 0.00 0.00 68 1016.9
20260830152325 28 204 0.0 0.0 0.00 0.00 0.00 69 1019.9
20260830152059 27 248 0.0 0.0 0.00 0.00 0.00 69 1017.0
20260830151842 28 210 0.0 0.0 0.00 0.00 0.00 69 1019.9
20260830151529 27 231 0.0 0.0 0.00 0.00 0.00 69 1016.9
20260830151338 27 183 0.0 0.0 0.00 0.00 0.00 69 1019.9
20260830151053 27 258 0.0 0.0 0.00 0.00 0.00 69 1016.9
20260830150814 27 182 0.0 0.0 0.00 0.00 0.00 70 1019.9
20260830150545 27 215 0.0 0.0 0.00 0.00 0.00 69 1016.9
20260830150352 27 162 0.0 0.0 0.00 0.00 0.00 69 1019.7
20260830150007 27 191 0.0 0.0 0.00 0.00 0.00 71 1016.8
20260830145828 27 147 0.0 0.0 0.00 0.00 0.00 70 1019.8
20260830145501 27 214 0.0 0.0 0.00 0.00 0.00 71 1016.8
20260830145326 27 226 0.0 0.0 0.00 0.00 0.00 71 1019.8
20260830145055 27 186 0.0 8.0 0.00 0.00 0.00 72 1016.8
20260830144822 27 222 0.0 14.5 0.00 0.00 0.00 72 1019.7
20260830144556 27 209 0.0 16.1 0.00 0.00 0.00 73 1016.8
20260830144319 27 192 3.2 16.1 0.00 0.00 0.00 73 1019.8
20260830144041 26 228 8.0 17.7 0.00 0.00 0.00 73 1016.7
20260830143836 26 226 11.3 17.7 0.00 0.00 0.00 73 1019.7
20260830143602 26 231 12.9 17.7 0.00 0.00 0.00 73 1016.7
20260830143313 26 209 11.3 17.7 0.00 0.00 0.00 74 1019.6
20260830143051 26 191 8.0 16.1 0.00 0.00 0.00 74 1016.8
20260830142831 26 218 11.3 16.1 0.00 0.00 0.00 74 1019.6
20260830142541 26 219 11.3 16.1 0.00 0.00 0.00 74 1016.6
20260830142329 26 193 6.4 12.9 0.00 0.00 0.00 75 1019.6
20260830142032 26 230 0.0 0.0 0.00 0.00 0.00 75 1016.6
20260830141826 26 219 0.0 0.0 0.00 0.00 0.00 74 1019.6
20260830141525 26 224 0.0 0.0 0.00 0.00 0.00 75 1016.6
20260830141324 26 158 0.0 0.0 0.00 0.00 0.00 75 1019.5
20260830141007 26 190 0.0 0.0 0.00 0.00 0.00 76 1016.5
20260830140822 26 222 0.0 8.0 0.00 0.00 0.00 76 1019.5
20260830140600 25 214 0.0 9.7 0.00 0.00 0.00 76 1016.4
20260830140320 26 193 0.0 9.7 0.00 0.00 0.00 76 1019.4
20260830140053 25 195 3.2 14.5 0.00 0.00 0.00 77 1016.5
20260830135818 25 217 4.8 14.5 0.00 0.00 0.00 77 1019.5
20260830135543 25 189 6.4 14.5 0.00 0.00 0.00 77 1016.5
20260830135334 25 216 8.0 14.5 0.00 0.00 0.00 78 1019.4
20260830135007 25 211 6.4 12.9 0.00 0.00 0.00 78 1016.4
20260830134829 25 226 6.4 12.9 0.00 0.00 0.00 79 1019.4
20260830134600 25 223 6.4 12.9 0.00 0.00 0.00 79 1016.3
20260830134347 25 193 8.0 14.5 0.00 0.00 0.00 79 1019.3
20260830134029 25 210 6.4 14.5 0.00 0.00 0.00 79 1016.2
20260830133823 25 204 8.0 14.5 0.00 0.00 0.00 79 1019.2
20260830133511 25 162 9.7 12.9 0.00 0.00 0.00 79 1016.2
20260830133321 25 198 8.0 12.9 0.00 0.00 0.00 80 1019.2
20260830133002 24 189 6.4 12.9 0.00 0.00 0.00 80 1016.3
20260830132840 25 205 8.0 12.9 0.00 0.00 0.00 80 1019.2
20260830132551 24 210 6.4 12.9 0.00 0.00 0.00 80 1016.3
20260830132331 24 194 9.7 12.9 0.00 0.00 0.00 81 1019.2
20260830132043 24 226 4.8 11.3 0.00 0.00 0.00 81 1016.3
20260830131850 24 211 4.8 11.3 0.00 0.00 0.00 81 1019.1
20260830131508 23 217 4.8 11.3 0.00 0.00 0.00 81 1016.3
20260830131327 24 189 6.4 11.3 0.00 0.00 0.00 81 1019.1
20260830131059 23 193 3.2 9.7 0.00 0.00 0.00 82 1016.1
20260830130823 23 200 3.2 9.7 0.00 0.00 0.00 82 1019.0
20260830130549 23 162 4.8 9.7 0.00 0.00 0.00 82 1016.1
20260830130321 23 196 6.4 9.7 0.00 0.00 0.00 82 1019.0
20260830130041 23 178 3.2 9.7 0.00 0.00 0.00 82 1016.1
20260830125817 23 179 3.2 11.3 0.00 0.00 0.00 82 1019.0
20260830125502 23 185 3.2 11.3 0.00 0.00 0.00 83 1016.0
20260830125314 23 191 4.8 11.3 0.00 0.00 0.00 83 1018.8
20260830125057 23 191 6.4 11.3 0.00 0.00 0.00 83 1015.9
20260830124853 23 191 6.4 11.3 0.00 0.00 0.00 83 1018.8
20260830124519 22 207 4.8 9.7 0.00 0.00 0.00 83 1015.9
20260830124330 23 199 6.4 9.7 0.00 0.00 0.00 83 1018.8
20260830124013 22 211 3.2 8.0 0.00 0.00 0.00 83 1015.8
20260830123829 22 210 4.8 8.0 0.00 0.00 0.00 83 1018.7
20260830123501 22 178 1.6 4.8 0.00 0.00 0.00 83 1015.9
20260830123325 22 179 3.2 4.8 0.00 0.00 0.00 82 1018.8
20260830123101 22 179 1.6 4.8 0.00 0.00 0.00 82 1016.0
20260830122822 22 179 1.6 4.8 0.00 0.00 0.00 82 1018.8
20260830122545 22 179 0.0 3.2 0.00 0.00 0.00 82 1015.8
20260830122340 22 179 0.0 0.0 0.00 0.00 0.00 81 1018.7
20260830122006 22 178 0.0 0.0 0.00 0.00 0.00 81 1015.9
20260830121817 22 178 0.0 0.0 0.00 0.00 0.00 81 1018.7
20260830121606 22 179 0.0 0.0 0.00 0.00 0.00 81 1015.7
20260830121353 22 179 0.0 0.0 0.00 0.00 0.00 81 1018.6
20260830121031 22 178 0.0 0.0 0.00 0.00 0.00 81 1015.6
20260830120830 22 179 0.0 0.0 0.00 0.00 0.00 81 1018.5
20260830120515 22 179 0.0 0.0 0.00 0.00 0.00 81 1015.5
20260830120328 22 178 0.0 0.0 0.00 0.00 0.00 81 1018.5
20260830120013 22 178 0.0 0.0 0.00 0.00 0.00 81 1015.6
20260830115829 22 179 0.0 0.0 0.00 0.00 0.00 81 1018.4
20260830115509 22 179 0.0 0.0 0.00 0.00 0.00 80 1015.5
20260830115327 23 179 0.0 0.0 0.00 0.00 0.00 80 1018.5
20260830115005 22 178 0.0 0.0 0.00 0.00 0.00 80 1015.6
20260830114824 23 179 0.0 0.0 0.00 0.00 0.00 80 1018.4
20260830114612 22 178 0.0 0.0 0.00 0.00 0.00 80 1015.5
20260830114325 23 178 0.0 0.0 0.00 0.00 0.00 80 1018.4
20260830114050 22 179 0.0 0.0 0.00 0.00 0.00 80 1015.5
20260830113823 23 178 0.0 0.0 0.00 0.00 0.00 80 1018.4
20260830113544 23 179 0.0 0.0 0.00 0.00 0.00 79 1015.5
20260830113321 23 178 0.0 0.0 0.00 0.00 0.00 79 1018.4
20260830113036 23 178 0.0 0.0 0.00 0.00 0.00 79 1015.4
20260830112818 23 178 0.0 0.0 0.00 0.00 0.00 79 1018.4
20260830112530 23 178 0.0 0.0 0.00 0.00 0.00 78 1015.5
20260830112314 23 179 0.0 0.0 0.00 0.00 0.00 78 1018.4
20260830112016 23 179 0.0 0.0 0.00 0.00 0.00 78 1015.4
20260830111832 23 179 0.0 0.0 0.00 0.00 0.00 78 1018.4
20260830111511 23 179 0.0 0.0 0.00 0.00 0.00 78 1015.5
20260830111330 23 178 0.0 0.0 0.00 0.00 0.00 78 1018.4
20260830111043 23 179 0.0 0.0 0.00 0.00 0.00 78 1015.4
20260830110828 23 179 0.0 0.0 0.00 0.00 0.00 78 1018.4
20260830110543 23 179 0.0 0.0 0.00 0.00 0.00 77 1015.5
20260830110346 23 179 0.0 0.0 0.00 0.00 0.00 77 1018.4
20260830110104 23 178 0.0 0.0 0.00 0.00 0.00 77 1015.5
20260830105823 23 179 0.0 0.0 0.00 0.00 0.00 77 1018.5
20260830105551 23 179 0.0 0.0 0.00 0.00 0.00 77 1015.5
20260830105321 24 179 0.0 0.0 0.00 0.00 0.00 77 1018.3
20260830105042 23 179 0.0 0.0 0.00 0.00 0.00 76 1015.4
20260830104818 24 178 0.0 0.0 0.00 0.00 0.00 76 1018.3
20260830104538 23 179 0.0 0.0 0.00 0.00 0.00 76 1015.3
20260830104316 24 179 0.0 0.0 0.00 0.00 0.00 76 1018.4
20260830104023 24 178 0.0 0.0 0.00 0.00 0.00 76 1015.4
20260830103829 24 178 0.0 0.0 0.00 0.00 0.00 76 1018.4
20260830103510 24 179 0.0 1.6 0.00 0.00 0.00 76 1015.4
20260830103327 24 179 0.0 3.2 0.00 0.00 0.00 76 1018.3
20260830103002 24 179 0.0 3.2 0.00 0.00 0.00 76 1015.3
20260830102825 25 179 0.0 3.2 0.00 0.00 0.00 76 1018.2
20260830102554 24 178 0.0 6.4 0.00 0.00 0.00 76 1015.2
20260830102323 25 178 1.6 6.4 0.00 0.00 0.00 76 1018.2
20260830102044 24 178 0.0 8.0 0.00 0.00 0.00 76 1015.2
20260830101821 25 179 4.8 8.0 0.00 0.00 0.00 76 1018.2
20260830101536 24 178 3.2 8.0 0.00 0.00 0.00 76 1015.2
20260830101318 25 213 4.8 8.0 0.00 0.00 0.00 76 1018.0
20260830101028 24 197 4.8 8.0 0.00 0.00 0.00 75 1015.2
20260830100816 25 181 1.6 8.0 0.00 0.00 0.00 75 1018.1
20260830100523 25 181 1.6 11.3 0.00 0.00 0.00 75 1015.2
20260830100400 25 181 4.8 11.3 0.00 0.00 0.00 75 1018.1
20260830100049 25 167 3.2 11.3 0.00 0.00 0.00 75 1015.2
20260830095830 25 206 6.4 11.3 0.00 0.00 0.00 75 1018.0
20260830095541 25 156 3.2 12.9 0.00 0.00 0.00 75 1015.2
20260830095327 25 188 6.4 12.9 0.00 0.00 0.00 75 1017.9
20260830095031 25 202 4.8 12.9 0.00 0.00 0.00 75 1015.1
20260830094826 25 201 8.0 12.9 0.00 0.00 0.00 75 1018.0
20260830094515 25 193 8.0 12.9 0.00 0.00 0.00 74 1015.1
20260830094326 25 158 6.4 11.3 0.00 0.00 0.00 74 1017.9
20260830094008 25 176 6.4 11.3 0.00 0.00 0.00 74 1015.1
20260830093843 25 189 8.0 14.5 0.00 0.00 0.00 74 1017.9
20260830093542 25 192 6.4 14.5 0.00 0.00 0.00 74 1015.1
20260830093321 25 172 8.0 14.5 0.00 0.00 0.00 74 1018.0
20260830093050 25 189 8.0 14.5 0.00 0.00 0.00 74 1015.1
20260830092839 25 199 9.7 14.5 0.00 0.00 0.00 73 1018.0
20260830092521 25 187 8.0 16.1 0.00 0.00 0.00 73 1015.0
20260830092331 25 180 9.7 16.1 0.00 0.00 0.00 73 1017.9
20260830092005 25 203 8.0 16.1 0.00 0.00 0.00 73 1015.0
20260830091829 25 171 11.3 16.1 0.00 0.00 0.00 73 1017.8
20260830091557 25 199 9.7 16.1 0.00 0.00 0.00 73 1014.9
20260830091327 25 212 11.3 16.1 0.00 0.00 0.00 73 1017.8
20260830091049 25 208 9.7 16.1 0.00 0.00 0.00 73 1015.0
20260830090825 26 173 8.0 16.1 0.00 0.00 0.00 73 1017.9
20260830090540 25 203 8.0 17.7 0.00 0.00 0.00 73 1015.0
20260830090323 26 193 9.7 17.7 0.00 0.00 0.00 73 1017.9
20260830090031 25 204 8.0 17.7 0.00 0.00 0.00 73 1015.0
20260830085841 26 218 11.3 17.7 0.00 0.00 0.00 73 1017.9
20260830085558 25 185 11.3 19.3 0.00 0.00 0.00 73 1015.0
20260830085319 26 210 12.9 19.3 0.00 0.00 0.00 73 1017.9
20260830085050 25 193 9.7 19.3 0.00 0.00 0.00 73 1015.0
20260830084817 26 195 12.9 19.3 0.00 0.00 0.00 73 1017.9
20260830084544 25 212 11.3 22.5 0.00 0.00 0.00 73 1015.0
20260830084354 26 216 12.9 22.5 0.00 0.00 0.00 73 1017.8
20260830084005 26 186 11.3 22.5 0.00 0.00 0.00 73 1015.1
20260830083851 26 229 11.3 22.5 0.00 0.00 0.00 73 1018.0
20260830083537 26 195 11.3 19.3 0.00 0.00 0.00 73 1015.0
20260830083329 26 185 12.9 17.7 0.00 0.00 0.00 73 1018.0
20260830083026 26 185 11.3 17.7 0.00 0.00 0.00 73 1015.1
20260830082827 26 199 11.3 17.7 0.00 0.00 0.00 73 1018.1
20260830082508 26 198 12.9 17.7 0.00 0.00 0.00 73 1015.0
20260830082325 26 176 12.9 17.7 0.00 0.00 0.00 73 1017.9
20260830082103 26 186 9.7 17.7 0.00 0.00 0.00 73 1015.1
20260830081822 26 194 11.3 17.7 0.00 0.00 0.00 72 1018.0
20260830081532 26 190 9.7 17.7 0.00 0.00 0.00 73 1015.1
20260830081319 26 199 11.3 17.7 0.00 0.00 0.00 73 1018.0
20260830081020 26 190 11.3 19.3 0.00 0.00 0.00 72 1015.1
20260830080816 26 219 11.3 17.7 0.00 0.00 0.00 72 1018.0
20260830080504 26 166 11.3 17.7 0.00 0.00 0.00 72 1015.2
20260830080333 26 182 11.3 19.3 0.00 0.00 0.00 72 1018.1
20260830080056 26 199 12.9 19.3 0.00 0.00 0.00 73 1015.2
20260830075852 26 194 12.9 19.3 0.00 0.00 0.00 73 1018.1
20260830075527 26 216 14.5 19.3 0.00 0.00 0.00 73 1015.3
20260830075329 26 191 11.3 14.5 0.00 0.00 0.00 73 1018.2
20260830075009 26 197 9.7 16.1 0.00 0.00 0.00 73 1015.4
20260830074828 26 212 9.7 16.1 0.00 0.00 0.00 73 1018.3
20260830074603 26 215 8.0 17.7 0.00 0.00 0.00 73 1015.3
20260830074326 26 208 9.7 17.7 0.00 0.00 0.00 73 1018.1
20260830074057 26 199 9.7 17.7 0.00 0.00 0.00 73 1015.2
20260830073823 26 187 12.9 17.7 0.00 0.00 0.00 73 1018.0
20260830073544 26 199 11.3 17.7 0.00 0.00 0.00 73 1015.2
20260830073321 26 191 11.3 17.7 0.00 0.00 0.00 72 1018.1
20260830073035 26 204 11.3 17.7 0.00 0.00 0.00 72 1015.3
20260830072819 26 203 12.9 17.7 0.00 0.00 0.00 72 1018.1
20260830072524 26 193 8.0 17.7 0.00 0.00 0.00 72 1015.2
20260830072317 27 199 11.3 19.3 0.00 0.00 0.00 72 1018.1
20260830072014 26 183 8.0 19.3 0.00 0.00 0.00 72 1015.3
20260830071815 27 185 12.9 19.3 0.00 0.00 0.00 72 1018.3
20260830071620 26 179 12.9 19.3 0.00 0.00 0.00 72 1015.4
20260830071332 27 201 12.9 19.3 0.00 0.00 0.00 72 1018.3
20260830071052 26 197 11.3 19.3 0.00 0.00 0.00 72 1015.4
20260830070830 27 206 11.3 16.1 0.00 0.00 0.00 72 1018.3
20260830070546 26 207 11.3 17.7 0.00 0.00 0.00 72 1015.5
20260830070329 27 203 11.3 16.1 0.00 0.00 0.00 71 1018.3
20260830070032 26 186 11.3 16.1 0.00 0.00 0.00 71 1015.4
20260830065842 27 189 11.3 16.1 0.00 0.00 0.00 71 1018.3
20260830065556 27 208 11.3 16.1 0.00 0.00 0.00 71 1015.4
20260830065319 27 181 11.3 16.1 0.00 0.00 0.00 71 1018.3
20260830065046 26 203 9.7 16.1 0.00 0.00 0.00 71 1015.5
20260830064817 27 179 11.3 20.9 0.00 0.00 0.00 71 1018.2
20260830064536 26 201 9.7 20.9 0.00 0.00 0.00 71 1015.4
20260830064314 27 166 11.3 20.9 0.00 0.00 0.00 71 1018.3
20260830064029 26 183 9.7 19.3 0.00 0.00 0.00 71 1015.3
20260830063831 27 163 11.3 16.1 0.00 0.00 0.00 71 1018.3
20260830063510 26 197 8.0 16.1 0.00 0.00 0.00 71 1015.4
20260830063330 27 152 9.7 16.1 0.00 0.00 0.00 70 1018.3
20260830063002 26 191 8.0 12.9 0.00 0.00 0.00 70 1015.4
20260830062829 27 190 8.0 12.9 0.00 0.00 0.00 70 1018.3
20260830062556 26 163 6.4 12.9 0.00 0.00 0.00 70 1015.5
20260830062327 27 191 9.7 12.9 0.00 0.00 0.00 70 1018.4
20260830062044 26 181 6.4 12.9 0.00 0.00 0.00 70 1015.4
20260830061823 27 208 6.4 14.5 0.00 0.00 0.00 69 1018.2
20260830061510 26 199 8.0 14.5 0.00 0.00 0.00 69 1015.5
20260830061320 27 223 8.0 12.9 0.00 0.00 0.00 69 1018.4
20260830061058 26 191 8.0 14.5 0.00 0.00 0.00 69 1015.5
20260830060817 27 185 9.7 14.5 0.00 0.00 0.00 69 1018.4
20260830060548 26 184 8.0 14.5 0.00 0.00 0.00 69 1015.6
20260830060315 27 191 11.3 14.5 0.00 0.00 0.00 69 1018.4
20260830060040 26 189 8.0 12.9 0.00 0.00 0.00 69 1015.6
20260830055830 26 193 8.0 12.9 0.00 0.00 0.00 69 1018.4
20260830055511 26 182 6.4 11.3 0.00 0.00 0.00 68 1015.6
20260830055348 26 176 6.4 11.3 0.00 0.00 0.00 68 1018.4
20260830055049 26 198 6.4 11.3 0.00 0.00 0.00 68 1015.7
20260830054826 26 180 6.4 11.3 0.00 0.00 0.00 68 1018.5
20260830054548 26 197 4.8 8.0 0.00 0.00 0.00 68 1015.6
20260830054325 26 184 6.4 8.0 0.00 0.00 0.00 68 1018.4
20260830054045 26 190 4.8 9.7 0.00 0.00 0.00 67 1015.6
20260830053823 26 188 6.4 9.7 0.00 0.00 0.00 67 1018.4
20260830053541 26 186 4.8 11.3 0.00 0.00 0.00 67 1015.6
20260830053321 26 162 8.0 11.3 0.00 0.00 0.00 67 1018.3
20260830053036 26 181 4.8 11.3 0.00 0.00 0.00 67 1015.6
20260830052820 26 160 6.4 11.3 0.00 0.00 0.00 67 1018.3
20260830052530 26 168 4.8 9.7 0.00 0.00 0.00 67 1015.6
20260830052338 26 181 6.4 9.7 0.00 0.00 0.00 67 1018.3
20260830052019 26 199 4.8 8.0 0.00 0.00 0.00 67 1015.5
20260830051831 26 199 4.8 8.0 0.00 0.00 0.00 67 1018.4
20260830051506 26 177 4.8 11.3 0.00 0.00 0.00 67 1015.6
20260830051327 26 208 6.4 11.3 0.00 0.00 0.00 67 1018.3
20260830051100 26 164 4.8 11.3 0.00 0.00 0.00 66 1015.6
20260830050824 26 165 6.4 11.3 0.00 0.00 0.00 66 1018.3
20260830050553 26 162 4.8 8.0 0.00 0.00 0.00 66 1015.5
20260830050321 26 171 6.4 9.7 0.00 0.00 0.00 66 1018.3
20260830050021 26 168 4.8 8.0 0.00 0.00 0.00 65 1015.5
20260830045830 26 168 6.4 8.0 0.00 0.00 0.00 65 1018.4
20260830045510 26 166 4.8 9.7 0.00 0.00 0.00 65 1015.5
20260830045327 26 166 4.8 9.7 0.00 0.00 0.00 65 1018.4
20260830045102 26 151 1.6 8.0 0.00 0.00 0.00 65 1015.5
20260830044825 26 151 3.2 8.0 0.00 0.00 0.00 65 1018.4
20260830044624 26 151 3.2 8.0 0.00 0.00 0.00 65 1015.6
20260830044322 26 152 3.2 8.0 0.00 0.00 0.00 65 1018.3
20260830044040 26 151 3.2 8.0 0.00 0.00 0.00 65 1015.5
20260830043819 26 152 4.8 8.0 0.00 0.00 0.00 65 1018.3
20260830043530 26 151 3.2 8.0 0.00 0.00 0.00 65 1015.5
20260830043337 26 151 4.8 8.0 0.00 0.00 0.00 65 1018.3
20260830043054 26 151 4.8 8.0 0.00 0.00 0.00 65 1015.4
20260830042814 26 147 4.8 8.0 0.00 0.00 0.00 65 1018.2
20260830042547 26 194 3.2 6.4 0.00 0.00 0.00 65 1015.4
20260830042332 26 194 4.8 6.4 0.00 0.00 0.00 65 1018.3
20260830042039 26 194 3.2 4.8 0.00 0.00 0.00 65 1015.5
20260830041831 26 194 3.2 4.8 0.00 0.00 0.00 65 1018.3
20260830041529 26 194 1.6 4.8 0.00 0.00 0.00 65 1015.5
20260830041330 26 195 3.2 4.8 0.00 0.00 0.00 65 1018.2
20260830041015 26 195 0.0 0.0 0.00 0.00 0.00 65 1015.5
20260830040829 26 194 0.0 0.0 0.00 0.00 0.00 65 1018.4
20260830040502 26 195 0.0 0.0 0.00 0.00 0.00 64 1015.5
20260830040326 26 195 0.0 1.6 0.00 0.00 0.00 65 1018.4
20260830040100 26 195 0.0 3.2 0.00 0.00 0.00 64 1015.5
20260830035823 26 194 0.0 3.2 0.00 0.00 0.00 64 1018.2
20260830035546 26 193 0.0 3.2 0.00 0.00 0.00 64 1015.5
20260830035320 26 194 1.6 3.2 0.00 0.00 0.00 63 1018.1
20260830035043 26 194 1.6 3.2 0.00 0.00 0.00 63 1015.4
20260830034817 26 194 1.6 1.6 0.00 0.00 0.00 63 1018.2
20260830034529 26 194 0.0 1.6 0.00 0.00 0.00 63 1015.4